This demonstration page uses our WeatherBlox Daily Observations layout. Learn more.

Left ArrowRight Arrow

47.50024, -111.30081

Hourly Observations for January 25, 2020

Temp ( °F °C ) Dew Point ( °F °C ) Humidity (%) Winds ( mph kmh ) Pressure ( in mb ) Visibility ( mi km ) Precip ( " mm )
12:53 am 00:53 Clear 36 2.2 22 -5.6 57 57 SW 18 30 29.90 1013 10 16 0.00 0.00
1:53 am 01:53 Clear 37 2.8 25 -3.9 62 62 SW 18 30 29.89 1012 10 16 0.00 0.00
2:53 am 02:53 Clear 36 2.2 23 -5 59 59 SW 16 26 29.91 1013 10 16 0.00 0.00
3:53 am 03:53 Clear 34 1.1 21 -6.1 59 59 SW 12 19 29.94 1014 10 16 0.00 0.00
4:53 am 04:53 Clear 34 1.1 20 -6.7 56 56 SW 14 22 29.95 1014 10 16 0.00 0.00
5:53 am 05:53 Clear 33 0.6 19 -7.2 56 56 WSW 17 28 29.96 1015 10 16 0.00 0.00
6:53 am 06:53 Clear 33 0.6 21 -6.1 61 61 WSW 15 24 29.98 1015 10 16 0.00 0.00
7:53 am 07:53 Clear 29 -1.7 20 -6.7 69 69 SW 14 22 29.99 1016 10 16 0.00 0.00
8:53 am 08:53 Sunny 34 1.1 24 -4.4 67 67 SW 9 15 30.01 1016 10 16 0.00 0.00
9:53 am 09:53 Sunny 40 4.4 25 -3.9 55 55 SW 13 20 30.01 1016 10 16 0.00 0.00
10:53 am 10:53 Sunny 44 6.7 24 -4.4 45 45 SW 18 30 30.01 1016 10 16 0.00 0.00
11:53 am 11:53 Sunny 47 8.3 22 -5.6 37 37 WSW 18 30 29.99 1016 10 16 0.00 0.00
12:53 pm 12:53 Sunny 48 8.9 20 -6.7 33 33 WSW 18 30 29.96 1015 10 16 0.00 0.00
1:53 pm 13:53 Sunny 47 8.3 20 -6.7 34 34 WSW 17 28 29.96 1015 10 16 0.00 0.00
2:53 pm 14:53 Sunny 48 8.9 17 -8.3 29 29 W 23 37 29.97 1015 10 16 0.00 0.00
3:53 pm 15:53 Sunny 44 6.7 18 -7.8 35 35 W 16 26 30.00 1016 10 16 0.00 0.00
4:53 pm 16:53 Sunny 38 3.3 18 -7.8 44 44 WSW 12 19 30.03 1017 10 16 0.00 0.00
5:53 pm 17:53 Clear 31 -0.6 19 -7.2 61 61 SW 9 15 30.06 1018 10 16 0.00 0.00
6:53 pm 18:53 Clear 29 -1.7 20 -6.7 69 69 SW 12 19 30.07 1018 10 16 0.00 0.00
7:53 pm 19:53 Clear 26 -3.3 20 -6.7 78 78 SW 10 17 30.10 1019 10 16 0.00 0.00
8:53 pm 20:53 Clear 28 -2.2 21 -6.1 75 75 SW 12 19 30.09 1019 10 16 0.00 0.00
9:53 pm 21:53 Clear 27 -2.8 21 -6.1 78 78 SW 10 17 30.08 1019 10 16 0.00 0.00
10:53 pm 22:53 Clear 26 -3.3 20 -6.7 78 78 WSW 9 15 30.08 1019 10 16 0.00 0.00
11:53 pm 23:53 Clear 26 -3.3 20 -6.7 78 78 SW 8 13 30.08 1019 10 16 0.00 0.00

Powered by AerisWeather